Regional Weather Roundup
Issued by NWS State College, PA

Home | Current Version | Previous Version | Graphics & Text | Print | Product List | Glossary On
Versions: 1 2 3 4 5 6 7 8 9 10 11 12 13 14 15 16 17 18 19 20 21 22 23 24 25 26 27 28 29 30 31 32 33 34 35 36 37 38 39 40 41 42 43 44 45 46 47 48 49 50
000
ASUS41 KCTP 290203
RWRCTP

REGIONAL WEATHER ROUNDUP
NATIONAL WEATHER SERVICE STATE COLLEGE PA
1000 PM EDT THU JUL 28 2016

Note: "fair" indicates few or no clouds below 12,000 feet with no
significant weather and/or obstructions to visibility.

* = STATION THAT DOES NOT REPORT PRECIPITATION /E.G. RAIN...SNOW...ETC/
    THUNDER OR FOG.

PAZ002>004-007>009-013>016-020>023-029>032-290300-
WESTERN PENNSYLVANIA

CITY           SKY/WX    TMP DP  RH WIND       PRES   REMARKS
ERIE           PTCLDY    75  64  68 S3        29.90R
MEADVILLE      MOCLDY    67  65  93 SE3       29.94R
FRANKLIN*      MOCLDY    66  64  94 E3        29.96R
NEW CASTLE     FAIR      70  67  90 CALM      29.94R
BEAVER COUNTY  NOT AVBL
BUTLER*        PTCLDY    68  64  88 CALM      29.97R
PITTSBURGH INT MOCLDY    71  66  84 CALM      29.94R
PITTSBURGH     CLOUDY    70  67  90 CALM      29.93R FOG
INDIANA*       CLOUDY    70  70 100 CALM      29.98R FOG
LATROBE        LGT RAIN  70  70 100 CALM      29.95R
WASHINGTON CO* CLOUDY    70  66  88 CALM      29.95R
$$

PAZ004>006-010>012-017>019-024>028-033>037-041-042-045-046-049>053-290300-
CENTRAL PENNSYLVANIA

CITY           SKY/WX    TMP DP  RH WIND       PRES   REMARKS
BRADFORD       CLOUDY    69  67  93 CALM      29.97R FOG
DUBOIS         CLOUDY    68  65  90 CALM      29.96R FOG
CLEARFIELD     CLOUDY    70  67  90 CALM      29.96R
JOHNSTOWN      LGT RAIN  67  65  93 CALM      29.97S FOG
ALTOONA        LGT RAIN  69  69 100 CALM      29.96R FOG
STATE COLLEGE  LGT RAIN  69  68  96 CALM      29.94R
WILLIAMSPORT   LGT RAIN  75  65  70 W7        29.89R
SELINSGROVE    LGT RAIN  74  74 100 CALM      29.90R
FT INDIANTOWN  NOT AVBL
CAPITAL CITY   CLOUDY    76  72  87 CALM      29.88R
HARRISBURG     LGT RAIN  75  74  96 SE6       29.88R
YORK           LGT RAIN  74  72  93 SE3       29.89R
$$

PAZ038>040-043-044-047-048-054-055-060>062-067>071-290300-
EASTERN PENNSYLVANIA

CITY           SKY/WX    TMP DP  RH WIND       PRES   REMARKS
SCRANTON       LGT RAIN  75  68  78 S3        29.92R
MOUNT POCONO   CLOUDY    68  66  93 NW5       29.96S
ALLENTOWN      LGT RAIN  75  72  90 CALM      29.89F
QUAKERTOWN*    MOCLDY    73  73 100 CALM      29.91S
READING        LGT RAIN  73  71  93 CALM      29.89R
LANCASTER      LGT RAIN  73  72  96 SE3       29.90R FOG
COATESVILLE    LGT RAIN  72  72 100 CALM      29.93R VSB 1/4
POTTSTOWN      LGT RAIN  73  72  96 CALM      29.91R FOG
BLUE BELL      CLOUDY    72  72 100 CALM      29.89R
DOYLESTOWN     CLOUDY    72  72 100 CALM      29.89S
WILLOW GROVE   NOT AVBL
NORTH PHILA    CLOUDY    76  72  87 NE3       29.89S
PHILADELPHIA   CLOUDY    76  71  85 N3        29.88S
$$



USA.gov is the U.S. government's official web portal to all federal, state and local government web resources and services.